Simultaneous Nadir Overpasses (SNOs) Predictions

Prediction of SNOs between GOES-14 and AQUA Satellite Orbit:

Table of predicted SNOs for the next 14.0 days since TLE Epoch: 9/3/2022
Index Date Time (GOES-14) GOES-14 Lat,Lon AQUA Lat,Lon Distance(km) Time Diff (sec)
1 09/04/2022 20:27:15 -0.41,-104.60 0.25,-101.45 357.64 80
2 09/05/2022 08:48:23 0.40,-104.45 0.82,-106.57 240.59 80
3 09/07/2022 08:33:01 0.39,-104.43 0.21,-103.48 107.82 80
4 09/07/2022 20:54:17 -0.38,-104.54 -1.27,-108.64 467.05 80
5 09/09/2022 08:20:20 0.39,-104.41 -0.47,-100.40 456.92 80
6 09/09/2022 20:41:36 -0.38,-104.53 -0.58,-105.56 116.91 80
7 09/11/2022 20:31:35 -0.38,-104.52 0.05,-102.47 233.68 80
8 09/12/2022 08:52:42 0.36,-104.43 1.03,-107.59 358.71 80
9 09/14/2022 08:40:00 0.37,-104.42 0.38,-104.50 8.51 80
10 09/16/2022 08:24:38 0.37,-104.41 -0.27,-101.41 341.40 80
11 09/16/2022 20:45:54 -0.35,-104.48 -0.83,-106.56 237.88 80
